Track METEOR 3-6 now! 10-day predictions METEOR 3-6 is classified as:
1 22969U 94003A 21025.51344160 -.00000119 00000-0 -34127-3 0 9991 2 22969 82.5613 36.9917 0016094 89.5420 270.7546 13.16997441298092